Location: Cluj-Napoca
(46.7712°N, 23.6236°E)
Time: 06:50:21
(UTC+02:00)

ISS - Pass Details

Date: 30 January 2021
Orbit: 417 x 422 km, 51.6° (Epoch: 05 March)

Event Time Altitude Azimuth Distance (km) Brightness Sun altitude
Rises 19:53:21 0° 295° (WNW) 2,376 1.1 -25.3°
Reaches altitude 10° 19:55:28 10° 297° (WNW) 1,510 -0.1 -25.6°
Enters shadow 19:57:06 26° 300° (WNW) 864 -1.7 -25.9°
